BAW754 EGLL-LSGG

Flight info

Callsign BAW754
Flight time N/A
Altitude 35000
Route MODMI M185 MID UL612 VEULE DCT PEKIM DCT PILUL DCT PIMUP/N0434F270 DCT PIXIS DCT PIBAT/N0407F230 DCT LUSAR
Aircraft A320/M-SDE3FGHIRWY/LB1

Departure

Time N/A
Airport London Heathrow Airport (EGLL)

Arrival

Time 2026-05-05 18:46
Airport Geneva International Airport (LSGG)
Time Latitude Longitude Altitude Speed Heading
2026-05-05 18:12 48.15497 2.96580 34820 ft 440 kts 144°
2026-05-05 18:12 48.10612 3.02136 34822 ft 441 kts 143°
2026-05-05 18:13 48.05334 3.06710 34838 ft 439 kts 158°
2026-05-05 18:13 47.99710 3.10267 34847 ft 438 kts 158°
2026-05-05 18:14 47.94087 3.13794 34847 ft 438 kts 158°
2026-05-05 18:14 47.88466 3.17310 34848 ft 438 kts 158°
2026-05-05 18:15 47.82849 3.20823 34854 ft 438 kts 158°
2026-05-05 18:15 47.77230 3.24337 34846 ft 437 kts 158°
2026-05-05 18:16 47.71646 3.27813 34844 ft 438 kts 158°
2026-05-05 18:16 47.66030 3.31308 34841 ft 438 kts 158°
2026-05-05 18:17 47.60684 3.34620 34840 ft 438 kts 158°
2026-05-05 18:17 47.55087 3.38081 34832 ft 439 kts 159°
2026-05-05 18:18 47.49453 3.41574 34846 ft 439 kts 159°
2026-05-05 18:18 47.43821 3.45048 34854 ft 439 kts 159°
2026-05-05 18:19 47.38177 3.48517 34857 ft 439 kts 159°
2026-05-05 18:19 47.32533 3.51982 34858 ft 439 kts 159°
2026-05-05 18:20 47.26893 3.55438 34863 ft 439 kts 159°
2026-05-05 18:20 47.21245 3.58879 34869 ft 439 kts 159°
2026-05-05 18:21 47.15637 3.62299 34867 ft 439 kts 159°
2026-05-05 18:21 47.09981 3.65739 34866 ft 439 kts 159°
2026-05-05 18:21 47.07192 3.67482 35037 ft 436 kts 159°
2026-05-05 18:22 47.04392 3.69214 34867 ft 437 kts 159°
2026-05-05 18:22 46.98821 3.72718 34847 ft 437 kts 153°
2026-05-05 18:22 46.96291 3.75216 34844 ft 440 kts 142°
2026-05-05 18:23 46.94127 3.78396 34846 ft 444 kts 131°
2026-05-05 18:23 46.92396 3.82157 34845 ft 448 kts 120°
2026-05-05 18:23 46.91138 3.86342 34845 ft 451 kts 113°
2026-05-05 18:24 46.88899 3.94862 34843 ft 452 kts 114°
2026-05-05 18:24 46.86609 4.03455 34848 ft 453 kts 114°
2026-05-05 18:25 46.84312 4.12069 34840 ft 454 kts 114°
2026-05-05 18:25 46.82019 4.20620 34453 ft 455 kts 114°
2026-05-05 18:25 46.80885 4.24931 34219 ft 455 kts 111°
2026-05-05 18:26 46.80080 4.29420 33995 ft 458 kts 105°
2026-05-05 18:26 46.79424 4.33979 33737 ft 457 kts 105°
2026-05-05 18:26 46.78766 4.38523 33462 ft 457 kts 105°
2026-05-05 18:26 46.78103 4.43075 33187 ft 458 kts 105°
2026-05-05 18:27 46.77436 4.47612 32901 ft 458 kts 105°
2026-05-05 18:27 46.76767 4.52155 32627 ft 458 kts 105°
2026-05-05 18:27 46.76099 4.56694 32374 ft 458 kts 105°
2026-05-05 18:27 46.75432 4.61244 32113 ft 458 kts 105°
2026-05-05 18:28 46.74087 4.70333 30944 ft 462 kts 105°
2026-05-05 18:28 46.73401 4.74921 29977 ft 465 kts 105°
2026-05-05 18:28 46.72716 4.79489 28861 ft 468 kts 105°
2026-05-05 18:29 46.72018 4.84117 27861 ft 467 kts 105°
2026-05-05 18:29 46.71321 4.88731 27152 ft 462 kts 106°
2026-05-05 18:29 46.70638 4.93266 26523 ft 455 kts 106°
2026-05-05 18:29 46.69964 4.97753 25857 ft 451 kts 106°
2026-05-05 18:30 46.69295 5.02192 25210 ft 446 kts 106°
2026-05-05 18:30 46.68630 5.06587 24559 ft 443 kts 106°
2026-05-05 18:30 46.67967 5.10950 23912 ft 439 kts 106°
2026-05-05 18:30 46.67305 5.15282 23258 ft 436 kts 106°
2026-05-05 18:31 46.66648 5.19555 22911 ft 430 kts 106°
2026-05-05 18:31 46.66001 5.23801 22854 ft 430 kts 106°
2026-05-05 18:31 46.65366 5.28004 22854 ft 431 kts 106°
2026-05-05 18:31 46.64713 5.32332 22830 ft 433 kts 106°
2026-05-05 18:32 46.64080 5.36532 21703 ft 430 kts 105°
2026-05-05 18:32 46.63434 5.40808 20119 ft 433 kts 105°
2026-05-05 18:32 46.62794 5.45033 19415 ft 417 kts 105°
2026-05-05 18:32 46.62176 5.49104 19174 ft 412 kts 105°
2026-05-05 18:33 46.61552 5.53143 18636 ft 405 kts 105°
2026-05-05 18:33 46.60933 5.57109 17944 ft 397 kts 105°
2026-05-05 18:33 46.60311 5.61064 17681 ft 403 kts 105°
2026-05-05 18:33 46.59689 5.64995 17379 ft 403 kts 105°
2026-05-05 18:34 46.59059 5.68970 16930 ft 403 kts 105°
2026-05-05 18:34 46.58433 5.72928 16462 ft 399 kts 105°
2026-05-05 18:34 46.57666 5.76772 16006 ft 393 kts 115°
2026-05-05 18:34 46.56431 5.80277 15561 ft 387 kts 126°
2026-05-05 18:35 46.54780 5.83316 15122 ft 380 kts 137°
2026-05-05 18:35 46.52793 5.85797 14671 ft 374 kts 148°
2026-05-05 18:35 46.50653 5.87931 14244 ft 372 kts 148°
2026-05-05 18:35 46.48528 5.90053 13806 ft 370 kts 148°
2026-05-05 18:36 46.46415 5.92167 13306 ft 367 kts 148°
2026-05-05 18:36 46.44354 5.94239 13120 ft 353 kts 148°
2026-05-05 18:36 46.42376 5.96228 12986 ft 339 kts 148°
2026-05-05 18:36 46.40475 5.98135 12828 ft 324 kts 149°
2026-05-05 18:37 46.38758 6.00234 11766 ft 331 kts 133°
2026-05-05 18:37 46.37614 6.03205 10504 ft 348 kts 111°
2026-05-05 18:37 46.37371 6.06671 9824 ft 349 kts 85°
2026-05-05 18:37 46.38086 6.09898 9690 ft 329 kts 61°
2026-05-05 18:38 46.39346 6.12555 9395 ft 314 kts 54°
2026-05-05 18:38 46.40661 6.15046 8852 ft 309 kts 53°
2026-05-05 18:38 46.41973 6.17503 8252 ft 307 kts 53°
2026-05-05 18:38 46.43279 6.19948 7661 ft 306 kts 53°
2026-05-05 18:39 46.44591 6.22407 7314 ft 305 kts 53°
2026-05-05 18:39 46.45856 6.24807 7185 ft 294 kts 56°
2026-05-05 18:39 46.46661 6.27439 7060 ft 279 kts 84°
2026-05-05 18:39 46.46561 6.30138 6938 ft 260 kts 114°
2026-05-05 18:40 46.45651 6.32263 6774 ft 241 kts 144°
2026-05-05 18:40 46.44252 6.33320 6515 ft 224 kts 176°
2026-05-05 18:40 46.42732 6.33285 6375 ft 211 kts 191°
2026-05-05 18:40 46.41329 6.32986 6246 ft 202 kts 193°
2026-05-05 18:41 46.39955 6.32654 5936 ft 198 kts 193°
2026-05-05 18:41 46.38616 6.32212 5414 ft 198 kts 206°
2026-05-05 18:41 46.37499 6.31091 4963 ft 195 kts 225°
2026-05-05 18:41 46.36547 6.29677 4654 ft 197 kts 225°
2026-05-05 18:42 46.35594 6.28268 4399 ft 191 kts 225°
2026-05-05 18:42 46.34686 6.26928 4118 ft 181 kts 225°
2026-05-05 18:42 46.33814 6.25639 3864 ft 177 kts 225°
2026-05-05 18:42 46.32971 6.24394 3631 ft 175 kts 225°
2026-05-05 18:43 46.32107 6.23119 3385 ft 172 kts 225°
2026-05-05 18:43 46.31304 6.21933 3172 ft 163 kts 224°
2026-05-05 18:43 46.30527 6.20787 2951 ft 155 kts 224°
2026-05-05 18:43 46.29801 6.19718 2742 ft 145 kts 224°
2026-05-05 18:44 46.29107 6.18694 2554 ft 141 kts 224°
2026-05-05 18:44 46.28419 6.17682 2351 ft 142 kts 224°
2026-05-05 18:44 46.27728 6.16666 2153 ft 142 kts 225°
2026-05-05 18:44 46.27036 6.15648 1970 ft 142 kts 224°
2026-05-05 18:45 46.26351 6.14639 1785 ft 140 kts 224°
2026-05-05 18:45 46.25673 6.13646 1620 ft 138 kts 224°
2026-05-05 18:45 46.25004 6.12641 1430 ft 138 kts 224°
2026-05-05 18:45 46.24364 6.11717 1372 ft 114 kts 225°
2026-05-05 18:46 46.23931 6.11081 1378 ft 64 kts 225°
2026-05-05 18:46 46.23719 6.10801 1382 ft 31 kts 210°
2026-05-05 18:46 46.23557 6.10714 1383 ft 4 kts 194°
2026-05-05 18:46 46.23535 6.10705 1386 ft 2 kts 194°
2026-05-05 18:47 46.23529 6.10703 1386 ft 0 kts 194°
2026-05-05 18:48 46.23510 6.10696 1388 ft 5 kts 194°
2026-05-05 18:48 46.23462 6.10677 1390 ft 10 kts 197°
2026-05-05 18:48 46.23394 6.10631 1398 ft 11 kts 217°
2026-05-05 18:48 46.23338 6.10552 1397 ft 11 kts 226°
2026-05-05 18:49 46.23302 6.10512 1398 ft 6 kts 194°
2026-05-05 18:49 46.23265 6.10546 1393 ft 7 kts 137°
2026-05-05 18:49 46.23251 6.10565 1393 ft 2 kts 136°
2026-05-05 18:49 46.23233 6.10578 1397 ft 4 kts 174°
2026-05-05 18:50 46.23222 6.10551 1399 ft 3 kts 264°
2026-05-05 18:50 46.23223 6.10508 1396 ft 5 kts 269°
2026-05-05 18:50 46.23223 6.10499 1398 ft 0 kts 269°